ECHOSTAR 19

Last updated on Sun Apr 12 2026 00:02:54 GMT+0000 (Coordinated Universal Time)

1 41893U 16079A 26101.07368853 .00000000 00000+0 00000+0 0 9996 2 41893 0.0172 189.2235 0001227 202.0802 97.4247 1.00269321 34030
UTC large
Height (km)
Speed (km/s)
/
Latitude / Longitude
Inclination (degrees)
Orbital Period (minutes)
Azimuth
Elevation
Range (km)
Doppler Factor

Next 0 passes for location: London (51.5072 / 0.1276)

Sorry there are no passes over London.
ECHOSTAR 19